(36351) = 1992 RG2 = 2000 NW24 = 2000 QT13

Discovered at Anderson Mesa on 2000-07-04 by LONEOS.

Orbit

Orbit type: Main Belt

Note: WebGL enabled browser required.

epoch2024-03-31.0
epoch JD2460400.5
perihelion date2022-05-08.81417
perihelion JD2459708.31417
argument of perihelion (°)236.18210
ascending node (°)174.14136
inclination (°)2.20369
eccentricity0.0947181
perihelion distance (AU)2.3360153
Tisserand w.r.t. Jupiter3.4
ΔV w.r.t. Earth (km/sec)9.6
semimajor axis (AU)2.5804285
mean anomaly (°)164.58445
mean daily motion (°/day)0.23777500
aphelion distance (AU)2.825
period (years)4.15
P-vector [x]0.63839003
P-vector [y]0.71829698
P-vector [z]0.27660010
Q-vector [x]-0.76970303
Q-vector [y]0.59390602
Q-vector [z]0.23416422
absolute magnitude15.1
phase slope0.15
uncertainty0
referenceMPEC 2024-F50
observations used1893
oppositions22
arc length (days)11978
first opposition used1991
last opposition used2024
residual rms (arc-secs)0.67
perturbers coarse indicatorM-v
perturbers precise indicator003Ek
first observation date used1991-06-03.0
last observation date used2024-03-19.0
computer nameMPCLINUX
JD of orbit computation2456966.873152
perihelion JD uncertainty (days)9.0453E-05
argument of perihelion uncertainty (°)1.1767E-04
ascending node uncertainty (°)1.1529E-04
inclination uncertainty (°)4.7917E-06
eccentricity uncertainty 5.0794E-08
perihelion distance uncertainty (AU)1.3252E-07
Minimum Orbit Intersection Distances (in AU)
for orbit epoch: 2460400.5, reference: E2024-G51
Mercury2.01861
Venus1.61337
Earth1.34739
Mars0.82008
Jupiter2.47638
Saturn6.6259
Uranus15.7386
Neptune27.4668

Observations

1929 total observations over interval: 1991 06 03.25860 – 2024 03 19.630339
These data are available for download (format description).

Date (UT) J2000 RA J2000 Dec Magn Location Ref
1991 06 03.25860 15 31 03.50 -15 52 57.1 20.8 V 691 – Steward Observatory, Kitt Peak-Spacewatch MPS 79270
1991 06 03.28261 15 31 02.29 -15 52 52.7 20.5 V 691 – Steward Observatory, Kitt Peak-Spacewatch MPS 79270
1991 06 03.30603 15 31 01.11 -15 52 48.4 20.3 V 691 – Steward Observatory, Kitt Peak-Spacewatch MPS 79270
1992 09 02.14306 22 55 59.77 -05 54 55.8 18.6   809 – European Southern Observatory, La Silla MPC 21066
1992 09 02.15347 22 55 59.18 -05 55 01.0   809 – European Southern Observatory, La Silla MPC 21066
1992 09 02.16389 22 55 58.61 -05 55 05.2   809 – European Southern Observatory, La Silla MPC 21066
1992 09 03.23403 22 55 04.80 -06 01 43.9   809 – European Southern Observatory, La Silla MPC 21066
1992 09 23.10278 22 39 25.88 -07 59 15.5   809 – European Southern Observatory, La Silla MPS 26649
1992 09 23.11597 22 39 25.21 -07 59 19.5   809 – European Southern Observatory, La Silla MPS 26649
1992 09 23.12917 22 39 24.59 -07 59 23.9   809 – European Southern Observatory, La Silla MPS 26649
1995 05 29.17586 14 33 26.38 -12 14 35.4 18.6 V 691 – Steward Observatory, Kitt Peak-Spacewatch MPS 26649
1995 05 29.19201 14 33 25.74 -12 14 33.3   691 – Steward Observatory, Kitt Peak-Spacewatch MPS 26649
1995 05 29.20815 14 33 25.16 -12 14 30.1   691 – Steward Observatory, Kitt Peak-Spacewatch MPS 26649
1996 08 19.40503 21 42 35.63 -11 50 43.1 18.6 V 566 – Haleakala-NEAT/GEODSS MPS 22350
1996 08 19.41548 21 42 35.06 -11 50 47.0 18.7 V 566 – Haleakala-NEAT/GEODSS MPS 22350
1996 08 19.42590 21 42 34.51 -11 50 50.4 18.5 V 566 – Haleakala-NEAT/GEODSS MPS 22350
2000 07 04.28448 20 58 45.96 -14 19 31.7 18.5 R 699 – Lowell Observatory-LONEOS MPS 17172
2000 07 04.30289 20 58 45.22 -14 19 34.1   699 – Lowell Observatory-LONEOS MPS 17172
2000 07 04.32127 20 58 44.77 -14 19 36.3   699 – Lowell Observatory-LONEOS MPS 17172
2000 07 04.33961 20 58 44.09 -14 19 37.8   699 – Lowell Observatory-LONEOS MPS 17172
2000 07 07.32001 20 56 58.09 -14 26 42.2 19.0   704 – Lincoln Laboratory ETS, New Mexico MPS 17172
2000 07 07.34478 20 56 57.00 -14 26 45.5 19.9   704 – Lincoln Laboratory ETS, New Mexico MPS 17172
2000 07 07.35718 20 56 56.63 -14 26 47.7 19.1   704 – Lincoln Laboratory ETS, New Mexico MPS 17172
2000 07 07.36958 20 56 56.13 -14 26 50.8 19.1   704 – Lincoln Laboratory ETS, New Mexico MPS 17172
2000 08 01.25039 20 36 36.48 -15 54 01.3 17.6   704 – Lincoln Laboratory ETS, New Mexico MPS 22350
2000 08 01.26503 20 36 35.64 -15 54 05.1 18.4   704 – Lincoln Laboratory ETS, New Mexico MPS 22350
2000 08 01.27960 20 36 34.84 -15 54 08.0 18.4   704 – Lincoln Laboratory ETS, New Mexico MPS 22350
2000 08 01.29401 20 36 33.99 -15 54 11.3 18.1   704 – Lincoln Laboratory ETS, New Mexico MPS 22350
2000 08 01.30843 20 36 33.20 -15 54 14.8 18.0   704 – Lincoln Laboratory ETS, New Mexico MPS 22350
2000 08 20.17619 20 20 35.67 -17 07 51.2 18.8 R 699 – Lowell Observatory-LONEOS MPS 22350
2000 08 20.20233 20 20 34.48 -17 07 56.5   699 – Lowell Observatory-LONEOS MPS 22350
2000 08 20.21173 20 20 34.13 -17 07 59.3   699 – Lowell Observatory-LONEOS MPS 22350
2000 08 20.22114 20 20 33.62 -17 08 00.6   699 – Lowell Observatory-LONEOS MPS 22350
2000 08 24.22021 20 17 51.77 -17 21 31.5 18.9   704 – Lincoln Laboratory ETS, New Mexico MPS 18049
2000 08 24.23309 20 17 51.32 -17 21 33.1 18.9   704 – Lincoln Laboratory ETS, New Mexico MPS 18049
2000 08 24.24588 20 17 50.78 -17 21 36.8 19.0   704 – Lincoln Laboratory ETS, New Mexico MPS 18049
2000 08 24.25868 20 17 50.27 -17 21 38.9 19.0   704 – Lincoln Laboratory ETS, New Mexico MPS 18049
2000 09 02.19882 20 13 10.02 -17 47 38.1 18.4   704 – Lincoln Laboratory ETS, New Mexico MPS 22350
2000 09 02.21228 20 13 09.57 -17 47 39.3 19.1   704 – Lincoln Laboratory ETS, New Mexico MPS 22350
2000 09 02.22576 20 13 09.25 -17 47 42.4 19.4   704 – Lincoln Laboratory ETS, New Mexico MPS 22350
2001 11 12.36867 06 03 02.61 +20 04 19.8 18.4   704 – Lincoln Laboratory ETS, New Mexico MPS 41782
2001 11 12.38296 06 03 02.27 +20 04 18.5 18.6   704 – Lincoln Laboratory ETS, New Mexico MPS 41782
2001 11 12.39726 06 03 01.94 +20 04 17.0 19.2   704 – Lincoln Laboratory ETS, New Mexico MPS 41782
2001 11 12.41154 06 03 01.59 +20 04 16.0 19.0   704 – Lincoln Laboratory ETS, New Mexico MPS 41782
2001 11 12.42602 06 03 01.27 +20 04 15.4 19.0   704 – Lincoln Laboratory ETS, New Mexico MPS 41782
2001 11 20.37201 05 59 11.05 +19 55 19.2 17.9   704 – Lincoln Laboratory ETS, New Mexico MPS 41782
2001 11 20.38667 05 59 10.48 +19 55 18.3 18.2   704 – Lincoln Laboratory ETS, New Mexico MPS 41782
2001 11 20.40133 05 59 09.92 +19 55 16.9 18.0   704 – Lincoln Laboratory ETS, New Mexico MPS 41782
2001 11 20.41601 05 59 09.37 +19 55 14.5 18.8   704 – Lincoln Laboratory ETS, New Mexico MPS 41782
2001 11 20.43077 05 59 08.77 +19 55 14.9 18.7   704 – Lincoln Laboratory ETS, New Mexico MPS 41782
2001 11 21.38048 05 58 33.38 +19 54 15.8 18.0   704 – Lincoln Laboratory ETS, New Mexico MPS 41782
2001 11 21.39516 05 58 32.82 +19 54 14.6 18.4   704 – Lincoln Laboratory ETS, New Mexico MPS 41782
2001 11 21.40983 05 58 32.22 +19 54 13.6 18.6   704 – Lincoln Laboratory ETS, New Mexico MPS 41782
2001 11 21.42452 05 58 31.63 +19 54 12.8 18.7   704 – Lincoln Laboratory ETS, New Mexico MPS 41782
2001 11 21.43922 05 58 31.03 +19 54 11.6 18.8   704 – Lincoln Laboratory ETS, New Mexico MPS 41782
2001 12 10.29380 05 42 24.64 +19 37 57.5 18.3   704 – Lincoln Laboratory ETS, New Mexico MPS 43304
2001 12 10.30883 05 42 23.69 +19 37 56.8 18.6   704 – Lincoln Laboratory ETS, New Mexico MPS 43304
2001 12 10.32388 05 42 22.76 +19 37 57.1 18.9   704 – Lincoln Laboratory ETS, New Mexico MPS 43304
2001 12 10.33893 05 42 21.75 +19 37 55.4 18.3   704 – Lincoln Laboratory ETS, New Mexico MPS 43304
2001 12 10.35399 05 42 20.82 +19 37 54.8 18.4   704 – Lincoln Laboratory ETS, New Mexico MPS 43304
2001 12 14.29633 05 38 19.63 +19 35 22.5 18.1   704 – Lincoln Laboratory ETS, New Mexico MPS 43304
2001 12 14.31147 05 38 18.70 +19 35 22.1 18.3   704 – Lincoln Laboratory ETS, New Mexico MPS 43304
2001 12 14.32661 05 38 17.71 +19 35 21.5 18.2   704 – Lincoln Laboratory ETS, New Mexico MPS 43304
2001 12 14.34175 05 38 16.73 +19 35 20.6 17.9   704 – Lincoln Laboratory ETS, New Mexico MPS 43304
2001 12 14.35694 05 38 15.74 +19 35 20.0 17.8   704 – Lincoln Laboratory ETS, New Mexico MPS 43304
2001 12 17.29586 05 35 14.34 +19 33 39.9 17.9   704 – Lincoln Laboratory ETS, New Mexico MPS 43304
2001 12 17.31098 05 35 13.29 +19 33 39.6 17.9   704 – Lincoln Laboratory ETS, New Mexico MPS 43304
2001 12 17.32612 05 35 12.37 +19 33 39.5 17.6   704 – Lincoln Laboratory ETS, New Mexico MPS 43304
2001 12 17.34126 05 35 11.28 +19 33 38.4 18.2   704 – Lincoln Laboratory ETS, New Mexico MPS 43304
2001 12 17.35641 05 35 10.38 +19 33 38.4 17.3   704 – Lincoln Laboratory ETS, New Mexico MPS 43304
2001 12 20.23168 05 32 14.39 +19 32 14.4 17.6   704 – Lincoln Laboratory ETS, New Mexico MPS 43304
2001 12 20.24723 05 32 13.40 +19 32 13.6 18.9   704 – Lincoln Laboratory ETS, New Mexico MPS 43304
2001 12 20.26248 05 32 12.52 +19 32 13.8 18.5   704 – Lincoln Laboratory ETS, New Mexico MPS 43304
2001 12 20.29349 05 32 10.45 +19 32 13.0 18.6   704 – Lincoln Laboratory ETS, New Mexico MPS 43304
2001 12 21.22436 05 31 14.36 +19 31 49.8 18.0   704 – Lincoln Laboratory ETS, New Mexico MPS 43304
2001 12 21.23946 05 31 13.42 +19 31 49.1 18.6   704 – Lincoln Laboratory ETS, New Mexico MPS 43304
2001 12 21.25455 05 31 12.45 +19 31 48.2 18.5   704 – Lincoln Laboratory ETS, New Mexico MPS 43304
2001 12 21.26967 05 31 11.45 +19 31 47.9 19.6   704 – Lincoln Laboratory ETS, New Mexico MPS 43304
2001 12 21.28477 05 31 10.60 +19 31 47.9 18.9   704 – Lincoln Laboratory ETS, New Mexico MPS 43304
2002 01 09.25244 05 15 03.18 +19 30 36.1 18.0   704 – Lincoln Laboratory ETS, New Mexico MPS 48810
2002 01 09.26756 05 15 02.57 +19 30 36.2 18.8   704 – Lincoln Laboratory ETS, New Mexico MPS 48810
2002 01 09.28270 05 15 01.96 +19 30 36.5 19.0   704 – Lincoln Laboratory ETS, New Mexico MPS 48810
2002 01 09.29781 05 15 01.35 +19 30 36.9 19.2   704 – Lincoln Laboratory ETS, New Mexico MPS 48810
